UAL1138 MGGT-KLAX

Flight info

Callsign UAL1138
Flight time N/A
Altitude 34000
Route ULEBI3A ULEBI UW3 ASOKU UL655 CDR/N0463F360 UL655 PPE J93 AXASA DCT ASUTA DCT AMMOR OLAAA2
Aircraft B738/M-SDE2E3FGHIRWXY/LB1

Departure

Time N/A
Airport La Aurora International Airport (MGGT)

Arrival

Time 2026-05-04 05:19
Airport Los Angeles International Airport (KLAX)
Time Latitude Longitude Altitude Speed Heading
2026-05-04 04:42 32.38491 -115.15053 29831 ft 422 kts 294°
2026-05-04 04:42 32.40052 -115.17974 29834 ft 420 kts 294°
2026-05-04 04:43 32.43171 -115.23809 29826 ft 419 kts 294°
2026-05-04 04:43 32.46288 -115.29631 29833 ft 418 kts 294°
2026-05-04 04:44 32.49395 -115.35438 29829 ft 418 kts 293°
2026-05-04 04:44 32.52504 -115.41256 29812 ft 418 kts 293°
2026-05-04 04:45 32.55613 -115.47083 29831 ft 418 kts 293°
2026-05-04 04:47 32.66449 -115.67469 29860 ft 418 kts 292°
2026-05-04 04:47 32.69501 -115.73277 29856 ft 417 kts 292°
2026-05-04 04:48 32.72569 -115.79131 29869 ft 417 kts 293°
2026-05-04 04:49 32.80211 -115.93732 29875 ft 415 kts 292°
2026-05-04 04:49 32.83196 -115.99598 29873 ft 414 kts 292°
2026-05-04 04:50 32.86135 -116.05487 29886 ft 414 kts 292°
2026-05-04 04:50 32.89071 -116.11368 29904 ft 413 kts 292°
2026-05-04 04:51 32.92023 -116.17210 29908 ft 411 kts 292°
2026-05-04 04:51 32.94931 -116.23032 29905 ft 408 kts 291°
2026-05-04 04:52 32.97820 -116.28856 29895 ft 409 kts 292°
2026-05-04 04:52 33.00697 -116.34725 29919 ft 413 kts 292°
2026-05-04 04:53 33.03653 -116.40621 29932 ft 415 kts 292°
2026-05-04 04:53 33.06330 -116.46654 29917 ft 403 kts 286°
2026-05-04 04:54 33.07428 -116.49670 29410 ft 395 kts 285°
2026-05-04 04:54 33.08491 -116.52658 28764 ft 389 kts 285°
2026-05-04 04:54 33.09550 -116.55600 28239 ft 383 kts 285°
2026-05-04 04:54 33.10597 -116.58447 27682 ft 378 kts 285°
2026-05-04 04:55 33.11657 -116.61291 27144 ft 373 kts 285°
2026-05-04 04:55 33.12714 -116.64128 26623 ft 376 kts 285°
2026-05-04 04:55 33.13595 -116.67075 26058 ft 378 kts 275°
2026-05-04 04:55 33.14052 -116.70142 25485 ft 373 kts 273°
2026-05-04 04:56 33.14474 -116.73181 24930 ft 369 kts 273°
2026-05-04 04:56 33.14895 -116.76197 24373 ft 367 kts 273°
2026-05-04 04:56 33.15317 -116.79190 23815 ft 366 kts 273°
2026-05-04 04:56 33.15745 -116.82186 23186 ft 365 kts 274°
2026-05-04 04:57 33.16175 -116.85160 22611 ft 363 kts 274°
2026-05-04 04:57 33.16604 -116.88120 22058 ft 359 kts 274°
2026-05-04 04:57 33.17030 -116.91042 21522 ft 356 kts 274°
2026-05-04 04:57 33.17451 -116.93937 20997 ft 352 kts 274°
2026-05-04 04:58 33.17867 -116.96807 20459 ft 350 kts 274°
2026-05-04 04:58 33.18281 -116.99661 19959 ft 349 kts 274°
2026-05-04 04:58 33.18554 -117.01554 19613 ft 349 kts 274°
2026-05-04 04:58 33.18964 -117.04400 19089 ft 349 kts 275°
2026-05-04 04:59 33.19377 -117.07260 18564 ft 349 kts 275°
2026-05-04 04:59 33.19920 -117.11031 17812 ft 346 kts 275°
2026-05-04 04:59 33.20326 -117.13852 17291 ft 343 kts 275°
2026-05-04 04:59 33.20599 -117.15747 16926 ft 342 kts 275°
2026-05-04 05:00 33.20999 -117.18536 16408 ft 340 kts 275°
2026-05-04 05:00 33.21397 -117.21311 15938 ft 338 kts 275°
2026-05-04 05:00 33.22183 -117.26831 14948 ft 341 kts 276°
2026-05-04 05:01 33.22582 -117.29628 14434 ft 342 kts 276°
2026-05-04 05:01 33.22983 -117.32435 14045 ft 340 kts 276°
2026-05-04 05:01 33.23404 -117.35181 13851 ft 333 kts 277°
2026-05-04 05:01 33.23836 -117.37927 13743 ft 340 kts 277°
2026-05-04 05:02 33.24276 -117.40722 13592 ft 345 kts 277°
2026-05-04 05:02 33.24720 -117.43550 13448 ft 345 kts 277°
2026-05-04 05:02 33.25160 -117.46360 13305 ft 343 kts 277°
2026-05-04 05:02 33.25595 -117.49160 13183 ft 342 kts 277°
2026-05-04 05:03 33.26034 -117.51951 13037 ft 342 kts 279°
2026-05-04 05:03 33.26872 -117.54628 12842 ft 351 kts 296°
2026-05-04 05:04 33.30902 -117.62010 12192 ft 354 kts 299°
2026-05-04 05:04 33.32250 -117.64473 11961 ft 353 kts 299°
2026-05-04 05:04 33.33586 -117.66931 11739 ft 352 kts 299°
2026-05-04 05:06 33.42305 -117.83156 10283 ft 302 kts 298°
2026-05-04 05:06 33.43412 -117.85226 10114 ft 295 kts 298°
2026-05-04 05:06 33.44520 -117.87298 9953 ft 288 kts 299°
2026-05-04 05:07 33.45562 -117.89244 9954 ft 275 kts 298°
2026-05-04 05:07 33.46594 -117.91177 9619 ft 275 kts 298°
2026-05-04 05:07 33.47762 -117.92964 9397 ft 275 kts 317°
2026-05-04 05:09 33.62094 -117.99523 8010 ft 275 kts 337°
2026-05-04 05:09 33.63915 -118.00244 7787 ft 277 kts 340°
2026-05-04 05:10 33.65765 -118.00907 7568 ft 277 kts 341°
2026-05-04 05:10 33.67596 -118.01578 7334 ft 273 kts 341°
2026-05-04 05:10 33.69407 -118.02229 7110 ft 270 kts 341°
2026-05-04 05:10 33.71192 -118.02871 7026 ft 266 kts 341°
2026-05-04 05:11 33.72951 -118.03509 6989 ft 261 kts 341°
2026-05-04 05:11 33.74661 -118.04131 6976 ft 252 kts 341°
2026-05-04 05:11 33.76313 -118.04736 6954 ft 243 kts 341°
2026-05-04 05:11 33.77900 -118.05316 6951 ft 234 kts 341°
2026-05-04 05:12 33.79438 -118.05960 6755 ft 236 kts 336°
2026-05-04 05:12 33.80945 -118.06692 6496 ft 237 kts 336°
2026-05-04 05:12 33.82495 -118.07452 6207 ft 238 kts 335°
2026-05-04 05:12 33.84012 -118.08190 5924 ft 239 kts 336°
2026-05-04 05:13 33.85562 -118.08939 5619 ft 241 kts 337°
2026-05-04 05:13 33.87127 -118.09692 5335 ft 242 kts 337°
2026-05-04 05:13 33.88695 -118.10445 5066 ft 243 kts 338°
2026-05-04 05:13 33.90336 -118.10884 4808 ft 242 kts 357°
2026-05-04 05:14 33.92008 -118.10946 4583 ft 240 kts 357°
2026-05-04 05:14 33.93587 -118.11503 4287 ft 239 kts 323°
2026-05-04 05:14 33.94869 -118.12732 4075 ft 236 kts 317°
2026-05-04 05:14 33.95800 -118.14316 3795 ft 233 kts 284°
2026-05-04 05:15 33.96024 -118.16209 3581 ft 226 kts 267°
2026-05-04 05:15 33.95844 -118.18063 3299 ft 221 kts 261°
2026-05-04 05:15 33.95636 -118.19867 2971 ft 218 kts 262°
2026-05-04 05:15 33.95462 -118.21618 2832 ft 206 kts 262°
2026-05-04 05:16 33.95289 -118.23314 2580 ft 202 kts 262°
2026-05-04 05:16 33.95116 -118.24973 2326 ft 197 kts 263°
2026-05-04 05:16 33.94949 -118.26584 2057 ft 189 kts 263°
2026-05-04 05:16 33.94790 -118.28099 1816 ft 175 kts 262°
2026-05-04 05:17 33.94645 -118.29501 1571 ft 163 kts 263°
2026-05-04 05:17 33.94511 -118.30796 1390 ft 148 kts 263°
2026-05-04 05:17 33.94387 -118.31989 1169 ft 141 kts 263°
2026-05-04 05:17 33.94266 -118.33164 990 ft 143 kts 263°
2026-05-04 05:18 33.94149 -118.34347 786 ft 142 kts 263°
2026-05-04 05:18 33.94026 -118.35520 597 ft 140 kts 262°
2026-05-04 05:18 33.93900 -118.36675 409 ft 137 kts 262°
2026-05-04 05:18 33.93788 -118.37811 210 ft 136 kts 261°
2026-05-04 05:19 33.93670 -118.38926 95 ft 129 kts 263°
2026-05-04 05:19 33.93577 -118.39835 97 ft 88 kts 263°
2026-05-04 05:19 33.93515 -118.40429 94 ft 64 kts 262°
2026-05-04 05:19 33.93475 -118.40882 93 ft 31 kts 273°
2026-05-04 05:20 33.93512 -118.41099 95 ft 25 kts 286°
2026-05-04 05:20 33.93554 -118.41234 95 ft 12 kts 314°
2026-05-04 05:20 33.93632 -118.41268 95 ft 12 kts 351°
2026-05-04 05:20 33.93713 -118.41275 95 ft 12 kts
2026-05-04 05:21 33.93798 -118.41254 94 ft 13 kts
2026-05-04 05:21 33.93887 -118.41265 93 ft 13 kts 353°
2026-05-04 05:21 33.93974 -118.41277 92 ft 12 kts 353°
2026-05-04 05:21 33.94059 -118.41290 92 ft 13 kts 353°
2026-05-04 05:22 33.94161 -118.41305 92 ft 16 kts 353°
2026-05-04 05:22 33.94294 -118.41325 93 ft 21 kts 353°
2026-05-04 05:22 33.94441 -118.41346 93 ft 21 kts 353°
2026-05-04 05:22 33.94581 -118.41367 94 ft 20 kts 353°
2026-05-04 05:23 33.94675 -118.41355 93 ft 12 kts 44°
2026-05-04 05:23 33.94696 -118.41261 93 ft 12 kts 75°
2026-05-04 05:23 33.94720 -118.41153 93 ft 15 kts 74°
2026-05-04 05:23 33.94734 -118.41068 94 ft 8 kts 83°
2026-05-04 05:24 33.94726 -118.41029 94 ft 4 kts 139°
2026-05-04 05:24 33.94694 -118.41029 94 ft 5 kts 190°
2026-05-04 05:24 33.94679 -118.41031 92 ft 0 kts 188°